Погода в Новопокровке

Россия / Амурская область     50°36′38″N   128°12′55″E
темп.,
°C
ветер,
м/с
пор.,
м/с
влажн.,
%
обл.,
%
осадки,
мм/ч
давл.,
гПа
погр.,
м
18 апреля, вс
вс1800:00+2ююз34844 0.0 101357
03:00+2ююз33775 0.0 101236
06:00+1ю35750 0.0 101280
09:00+7ю56560 0.0 1011372
12:00+11ю56450 0.0 1009922
15:00+13ююз55394 0.0 10061271
18:00+13ю46455 0.0 1005408
21:00+8ююв46620 0.0 100594
19 апреля, пн
пн1900:00+6ююв466931 0.0 100493
03:00+5ююв47745 0.0 1003110
06:00+4сз512755 0.0 1004404
09:00+2ссз11145356 0.0 1009931
12:00+4ссз1114320 0.1 10111465
15:00+6ссз1114230 0.1 10112042
18:00+4сз1015250 0.0 10132098
21:00+1сз915290 0.0 10151312
20 апреля, вт
вт2000:00−1сз715350 0.0 10151453
03:00−2сз920350 0.0 10141435
06:00−2сз918310 0.0 10151184
09:00+1сз914200 0.0 10151234
12:00+6сз811150 0.0 10151508
15:00+10сз79131 0.0 10131554
18:00+10сз24255 0.0 1013128
21:00+6ю33373 0.0 101416
21 апреля, ср
ср2100:00+4ююв334644 0.0 101537
03:00+3ююв35565 0.0 101458
06:00+3юв336174 0.0 101541
09:00+10юв344495 0.0 1015269
12:00+17ю45290 0.0 1014894
15:00+20ююз46240 0.0 10131399
18:00+20ю59290 0.0 1012369
21:00+14ююв494219 0.0 1013119
22 апреля, чт
чт2200:00+12ююв51249100 0.0 1014174
03:00+12юв61544100 0.0 1013264
06:00+12ююв81844100 0.0 1014375
09:00+14ююв91541100 0.0 1016567
12:00+20ю91226100 0.0 10171262
15:00+21ююз81024100 0.0 10171684
18:00+18ююз61036100 0.0 1018526
21:00+15юз51149100 0.0 1022352